sat.trackr.live / text

‹ back to catalog

STARLINK-35358

NORAD 66564 · 2025-268H

PAYLOAD ACTIVE UNKNOWN

§ Identity

Operator
Country
US
Launch date
2025-11-21
Launch site
AFETR
Launch vehicle
Mass (kg)
RCS (m²)

Purposes: comms

External: N2YO · Heavens-Above · Gunter

§ Orbital elements

Epoch: 2026-09-20T11:45:09.378432Z

Period
94.27 min
Inclination
43.0008°
Eccentricity
0.0001127
Mean motion
15.27584702 rev/d
Perigee alt
482.3 km
Apogee alt
483.8 km
Semi-major
6,861.2 km
B*
3.5433e-4
RAAN
326.7819°
Arg perigee
283.0337°
Mean anomaly
77.0389°
Rev number
4,775

§ Raw data

STARLINK-353581 66564U 25268H   26263.48969188  .00009502  00000+0  35433-3 0  99982 66564  43.0008 326.7819 0001127 283.0337  77.0389 15.27584702 47755

JSON: /api/v1/satellites/66564 · /tle

For live sub-satellite position, see the globe view (requires WebGL).

§ Visibility from observer

Set your observer location to see the next 7 days of passes ≥ 10°. The values pass through the URL so the page stays shareable.

No JS? Fill the form by hand. The geolocation button needs JavaScript.